Regional Weather Roundup
Issued by NWS

Home | Current Version | Previous Version | Graphics & Text | Print | Product List | Glossary On
Versions: 1 2 3 4 5 6 7 8 9 10 11 12 13 14 15 16 17 18 19 20 21 22 23 24 25 26 27 28 29 30 31 32 33 34 35 36 37 38 39 40 41 42 43 44 45 46 47 48 49 50
000
ASUS45 KPSR 300600
RWRAZ

PRELIMINARY ARIZONA REGIONAL HOURLY WEATHER ROUNDUP
NATIONAL WEATHER SERVICE PHOENIX AZ
1100 PM MST FRI AUG 29 2014

NOTE: FAIR INDICATES FEW OR NO CLOUDS BELOW 12,000 FEET WITH NO
SIGNIFICANT WEATHER AND/OR OBSTRUCTIONS TO VISIBILITY.

AZZ001>003-036-300700-
NORTHWEST ARIZONA

CITY           SKY/WX    TMP DP  RH WIND       PRES   REMARKS
KINGMAN        CLEAR     75  35  23 CALM      29.96S
6HR MIN TEMP:  72; 6HR MAX TEMP:  97;

$$

AZZ004>008-015-016-018-300700-
NORTH CENTRAL ARIZONA

CITY           SKY/WX    TMP DP  RH WIND       PRES   REMARKS
GRAND CANYON     N/A    N/A N/A N/A MISG        N/A
WILLIAMS       CLEAR     57  43  58 SE9       30.30S
PRESCOTT       PTCLDY    67  44  43 S10       30.10F
6HR MIN TEMP:  66; 6HR MAX TEMP:  87;

FLAGSTAFF      CLEAR     51  43  74 CALM      30.28S
6HR MIN TEMP:  51; 6HR MAX TEMP:  78;

PAYSON         CLEAR     70  39  32 CALM      30.13S
PAGE           PTCLDY    76  34  21 CALM      30.02S
6HR MIN TEMP:  75; 6HR MAX TEMP:  93;

$$

AZZ009>014-017-300700-
NORTHEAST ARIZONA

CITY           SKY/WX    TMP DP  RH WIND       PRES   REMARKS
WINSLOW        NOT AVBL
SAINT JOHNS    CLEAR     64  45  49 S5        30.16S
6HR MIN TEMP:  64; 6HR MAX TEMP:  84;

WINDOW ROCK    CLEAR     54  32  43 CALM      30.24S
6HR MIN TEMP:  52; 6HR MAX TEMP:  82;

$$

AZZ023-300700-
GREATER PHOENIX AREA

CITY           SKY/WX    TMP DP  RH WIND       PRES   REMARKS
PHOENIX        CLEAR     95  45  17 E3        29.74S
6HR MIN TEMP:  94; 6HR MAX TEMP: 107;

DEER VALLEY    CLEAR     90  44  20 NE9       29.78R
6HR MIN TEMP:  89; 6HR MAX TEMP: 105;

SCOTTSDALE     CLEAR     92  47  21 N5        29.79S
6HR MIN TEMP:  92; 6HR MAX TEMP: 105;

MESA-GATEWAY   CLEAR    N/A N/A N/A VRB6      29.80S
$$

AZZ027-028-300700-
SOUTHWEST MARICOPA COUNTY AND PINAL COUNTY

CITY           SKY/WX    TMP DP  RH WIND       PRES   REMARKS
CASA GRANDE    CLEAR     86  37  17 CALM      29.79S
6HR MIN TEMP:  84; 6HR MAX TEMP: 102;

$$

AZZ503-504-507>509-300700-
SOUTHEAST ARIZONA

CITY           SKY/WX    TMP DP  RH WIND       PRES   REMARKS
TUCSON         CLEAR     84  40  21 SE7       29.91R
6HR MIN TEMP:  84; 6HR MAX TEMP: 100;

DAVIS-MONTHAN  CLEAR     81  45  27 S3        29.89S
NOGALES        CLEAR     69  53  56 NE3       30.00S
6HR MIN TEMP:  69; 6HR MAX TEMP:  91;

SIERRA VISTA   CLEAR     74  48  39 SW7       30.07S
6HR MIN TEMP:  71; 6HR MAX TEMP:  89;

SAFFORD        CLEAR     79  47  32 E6        29.92R
6HR MIN TEMP:  77; 6HR MAX TEMP:  96;

$$

AZZ020-021-025-026-031-300700-
SOUTHWEST ARIZONA

CITY           SKY/WX    TMP DP  RH WIND       PRES   REMARKS
YUMA           CLEAR     97  41  14 W8        29.68S
6HR MIN TEMP:  95; 6HR MAX TEMP: 112;

$$

CAZ031-033-041-043-047-048-061-300700-
SOUTHERN CALIFORNIA

CITY           SKY/WX    TMP DP  RH WIND       PRES   REMARKS
DOWNTOWN L.A.  CLEAR     70  62  76 CALM      29.83S
6HR MIN TEMP:  69; 6HR MAX TEMP:  79;

L.A. AIRPORT   CLEAR     68  62  81 W6        29.83F
6HR MIN TEMP:  68; 6HR MAX TEMP:  73;

SAN DIEGO      MOCLDY    70  64  81 W5        29.86S
6HR MIN TEMP:  70; 6HR MAX TEMP:  76;

BURBANK        CLEAR     74  56  53 E6        29.83S
6HR MIN TEMP:  74; 6HR MAX TEMP:  88;

ONTARIO        CLEAR     74  58  57 S5        29.85S
6HR MIN TEMP:  74; 6HR MAX TEMP:  95;

RIVERSIDE      CLEAR     74  55  51 S3        29.85S
6HR MIN TEMP:  74; 6HR MAX TEMP:  95;

PALM SPRINGS   CLEAR     96  44  16 W6        29.72S
6HR MIN TEMP:  95; 6HR MAX TEMP: 113;

EL CENTRO NAS  CLEAR     90  48  23 W10       29.67S
6HR MIN TEMP:  90; 6HR MAX TEMP: 112;

IMPERIAL       CLEAR     89  51  27 W9        29.66S
6HR MIN TEMP:  88; 6HR MAX TEMP: 112;

BLYTHE         CLEAR     89  42  19 N3        29.69S
6HR MIN TEMP:  89; 6HR MAX TEMP: 110;

$$

NVZ020-UTZ003-300700-
SOUTHERN NEVADA-UTAH

CITY           SKY/WX    TMP DP  RH WIND       PRES   REMARKS
LAS VEGAS      NOT AVBL
SALT LAKE CITY MOCLDY    77  40  26 S10       29.95S
6HR MIN TEMP:  75; 6HR MAX TEMP:  88;

$$

NMZ009-TXZ055-300700-
NEW MEXICO-WEST TEXAS

CITY           SKY/WX    TMP DP  RH WIND       PRES   REMARKS
ALBUQUERQUE    CLEAR     73  41  31 CALM      30.14S
6HR MIN TEMP:  70; 6HR MAX TEMP:  85;

EL PASO        PTCLDY    78  50  37 CALM      30.01S
6HR MIN TEMP:  77; 6HR MAX TEMP:  93;

$$


........................KEY........................
SKY/WX - SKY CONDITION/WEATHER
TMP    - TEMPERATURE IN FAHRENHEIT
DP     - DEW POINT IN FAHRENHEIT
RH     - RELATIVE HUMIDITY IN PERCENT
WIND   - DIRECTION AND SPEED IN MILES PER HOUR (MPH)
VRB    - VARIABLE WIND DIRECTION
PRES   - MEAN SEA LEVEL PRESSURE IN INCHES OF MERCURY
         F - FALLING PRESSURE   R - RISING PRESSURE
         S - STEADY PRESSURE
VSB    - VISIBILITY IN MILES
HX     - HEAT INDEX IN FAHRENHEIT
WCI    - WIND CHILL INDEX IN FAHRENHEIT
TC     - TEMPERATURE IN CELSIUS WHICH IS ALSO KNOWN AS
         TEMPERATURE IN CENTIGRADE
AFB    - AIR FORCE BASE
         LUKE AFB IS LUKE AIR FORCE BASE
         DAVIS-MONTHAN IS DAVIS-MONTHAN AIR FORCE BASE
NAS    - NAVAL AIR STATION
         EL CENTRO NAS IS EL CENTRO NAVAL AIR STATION
N/A    - NOT AVAILABLE



USA.gov is the U.S. government's official web portal to all federal, state and local government web resources and services.